| time (UTC) | temp F | wind direction | speed MPH | gust MPH | rain 1hr in | rain 24hr in | rain mn in | humidity % | barometer mb |
| 20260504081546 | 47 | 263 | 3.0 | 7.0 | 0.00 | 0.00 | 0.00 | 50 | 1013.1 |
| 20260504044554 | 47 | 226 | 2.0 | 4.0 | 0.00 | 0.00 | 0.00 | 51 | 1013.1 |
| 20260504043047 | 47 | 215 | 2.0 | 5.0 | 0.00 | 0.00 | 0.00 | 51 | 1013.0 |
| 20260504041546 | 47 | 223 | 2.0 | 5.0 | 0.00 | 0.00 | 0.00 | 51 | 1012.9 |
| 20260504040045 | 47 | 248 | 2.0 | 4.0 | 0.00 | 0.00 | 0.00 | 50 | 1012.9 |
| 20260504034551 | 47 | 230 | 3.0 | 6.0 | 0.00 | 0.00 | 0.00 | 50 | 1012.7 |
| 20260504033054 | 47 | 0 | 0.0 | 4.0 | 0.00 | 0.00 | 0.00 | 50 | 1012.7 |
| 20260504031540 | 47 | 244 | 1.0 | 4.0 | 0.00 | 0.00 | 0.00 | 50 | 1012.7 |
| 20260504030048 | 48 | 218 | 2.0 | 4.0 | 0.00 | 0.00 | 0.00 | 49 | 1012.7 |
| 20260504024546 | 48 | 217 | 2.0 | 4.0 | 0.00 | 0.00 | 0.00 | 49 | 1012.6 |
| 20260504023045 | 48 | 232 | 2.0 | 4.0 | 0.00 | 0.00 | 0.00 | 48 | 1012.7 |
| 20260504021541 | 48 | 198 | 2.0 | 5.0 | 0.00 | 0.00 | 0.00 | 48 | 1012.7 |
| 20260504020048 | 49 | 228 | 2.0 | 6.0 | 0.00 | 0.00 | 0.00 | 47 | 1012.7 |
| 20260504014550 | 49 | 246 | 2.0 | 4.0 | 0.00 | 0.00 | 0.00 | 47 | 1012.7 |
| 20260504013052 | 49 | 210 | 2.0 | 5.0 | 0.00 | 0.00 | 0.00 | 46 | 1012.7 |
| 20260504011550 | 50 | 205 | 2.0 | 6.0 | 0.00 | 0.00 | 0.00 | 45 | 1012.4 |
| 20260504010056 | 50 | 232 | 3.0 | 6.0 | 0.00 | 0.00 | 0.00 | 44 | 1012.4 |
| 20260504004550 | 51 | 267 | 2.0 | 7.0 | 0.00 | 0.00 | 0.00 | 43 | 1012.4 |
| 20260504003047 | 51 | 240 | 2.0 | 4.0 | 0.00 | 0.00 | 0.00 | 42 | 1012.3 |
| 20260504001605 | 51 | 213 | 2.0 | 4.0 | 0.00 | 0.00 | 0.00 | 41 | 1012.1 |
| 20260504000048 | 52 | 250 | 2.0 | 8.0 | 0.00 | 0.00 | 0.00 | 40 | 1011.9 |
| 20260503234547 | 52 | 261 | 3.0 | 7.0 | 0.00 | 0.00 | 0.00 | 39 | 1011.7 |
| 20260503233050 | 53 | 317 | 2.0 | 8.0 | 0.00 | 0.00 | 0.00 | 39 | 1011.6 |
| 20260503231547 | 53 | 338 | 2.0 | 11.0 | 0.00 | 0.00 | 0.00 | 38 | 1011.5 |
| 20260503230046 | 53 | 219 | 3.0 | 8.0 | 0.00 | 0.00 | 0.00 | 37 | 1011.5 |
| 20260503224544 | 54 | 298 | 4.0 | 10.0 | 0.00 | 0.00 | 0.00 | 36 | 1011.5 |
| 20260503223044 | 54 | 246 | 5.0 | 11.0 | 0.00 | 0.00 | 0.00 | 36 | 1011.3 |
| 20260503221545 | 54 | 336 | 3.0 | 11.0 | 0.00 | 0.00 | 0.00 | 37 | 1011.3 |
| 20260503214540 | 54 | 316 | 3.0 | 14.0 | 0.00 | 0.00 | 0.00 | 37 | 1011.3 |
| 20260503213049 | 55 | 302 | 4.0 | 10.0 | 0.00 | 0.00 | 0.00 | 35 | 1011.2 |
| 20260503211559 | 55 | 312 | 4.0 | 12.0 | 0.00 | 0.00 | 0.00 | 36 | 1010.9 |
| 20260503210041 | 54 | 234 | 5.0 | 13.0 | 0.00 | 0.00 | 0.00 | 35 | 1011.1 |
| 20260503204539 | 54 | 249 | 3.0 | 10.0 | 0.00 | 0.00 | 0.00 | 35 | 1010.9 |
| 20260503203046 | 54 | 304 | 4.0 | 11.0 | 0.00 | 0.00 | 0.00 | 35 | 1011.1 |
| 20260503201546 | 54 | 275 | 3.0 | 10.0 | 0.00 | 0.00 | 0.00 | 35 | 1011.1 |
| 20260503200044 | 53 | 180 | 3.0 | 19.0 | 0.00 | 0.00 | 0.00 | 35 | 1011.2 |
| 20260503194547 | 53 | 340 | 7.0 | 19.0 | 0.00 | 0.00 | 0.00 | 37 | 1011.4 |
| 20260503193048 | 52 | 284 | 4.0 | 15.0 | 0.00 | 0.00 | 0.00 | 35 | 1011.7 |
| 20260503191547 | 52 | 292 | 4.0 | 17.0 | 0.00 | 0.00 | 0.00 | 36 | 1011.6 |
| 20260503190046 | 52 | 245 | 4.0 | 16.0 | 0.00 | 0.00 | 0.00 | 37 | 1011.8 |
| 20260503184545 | 51 | 312 | 6.0 | 14.0 | 0.00 | 0.00 | 0.00 | 39 | 1012.0 |
| 20260503183042 | 51 | 313 | 5.0 | 14.0 | 0.00 | 0.00 | 0.00 | 37 | 1012.4 |
| 20260503181617 | 49 | 259 | 3.0 | 15.0 | 0.00 | 0.00 | 0.00 | 39 | 1012.3 |
| 20260503180054 | 49 | 248 | 4.0 | 11.0 | 0.00 | 0.00 | 0.00 | 38 | 1012.5 |
| 20260503174551 | 48 | 217 | 6.0 | 13.0 | 0.00 | 0.00 | 0.00 | 41 | 1012.7 |
| 20260503173052 | 47 | 39 | 6.0 | 14.0 | 0.00 | 0.00 | 0.00 | 41 | 1012.8 |
| 20260503171549 | 47 | 313 | 5.0 | 13.0 | 0.00 | 0.00 | 0.00 | 42 | 1013.0 |
| 20260503100104 | 35 | 328 | 5.0 | 12.0 | 0.00 | 0.00 | 0.00 | 74 | 1012.2 |